Time_in_sec,Latitude,Longitude,Altitude,Nbsat,valid_data
1312467300.97207975,47.37643433,8.55015755,486.88128662,5,1
1312467429.52410269,47.37641144,8.55006981,471.17318726,5,1
1312467429.57207417,47.37641144,8.55006981,471.11169434,5,1
1312467429.62307024,47.37641144,8.55006981,471.05017090,5,1
1312467429.67107344,47.37641144,8.55006886,470.98858643,5,1
1312467429.72351837,47.37641144,8.55006886,470.92697144,5,1
1312467429.77111387,47.37641144,8.55007076,470.96514893,5,1
1312467429.82376790,47.37641144,8.55007076,470.90393066,5,1
1312467429.87220073,47.37641144,8.55007076,470.84268188,5,1
1312467429.92319298,47.37641144,8.55006981,470.78137207,5,1
1312467429.97210526,47.37641144,8.55006981,470.72003174,5,1
1312467430.02424169,47.37640762,8.55007172,470.77844238,5,1
1312467430.07469845,47.37640762,8.55007172,470.71762085,5,1
1312467430.12306070,47.37641144,8.55007076,470.65673828,5,1
1312467430.17119431,47.37641144,8.55007076,470.59582520,5,1
1312467430.22340798,47.37641144,8.55007076,470.53485107,5,1
1312467430.27222323,47.37640762,8.55007172,470.61801147,5,1
1312467430.32356834,47.37640762,8.55007172,470.55764771,5,1
1312467430.37174320,47.37640762,8.55007172,470.49719238,5,1
1312467430.42420626,47.37640762,8.55007172,470.43670654,5,1
1312467430.47106886,47.37640762,8.55007076,470.37619019,5,1
1312467430.52421641,47.37640762,8.55007267,470.48342896,5,1
1312467430.57107568,47.37640762,8.55007267,470.42361450,5,1
1312467430.62421155,47.37640762,8.55007267,470.36373901,5,1
1312467430.67217708,47.37640762,8.55007267,470.30380249,5,1
1312467430.72310138,47.37640762,8.55007267,470.24383545,5,1
1312467430.77220345,47.37640762,8.55007458,470.37094116,5,1
1312467430.82423735,47.37640762,8.55007458,470.31176758,5,1
1312467430.87107754,47.37640762,8.55007458,470.25256348,5,1
1312467430.92338324,47.37640762,8.55007458,470.19329834,5,1
1312467430.97119284,47.37640762,8.55007458,470.13400269,5,1
1312467431.02364063,47.37640762,8.55007553,470.28100586,5,1
1312467431.07220483,47.37640762,8.55007553,470.22253418,5,1
1312467431.12387347,47.37640762,8.55007553,470.16403198,5,1
1312467431.17109179,47.37640762,8.55007553,470.10549927,5,1
1312467431.22308755,47.37640762,8.55007553,470.04690552,5,1
1312467431.27205849,47.37640762,8.55007648,470.21084595,5,1
1312467431.32318163,47.37640762,8.55007648,470.15313721,5,1
1312467431.37119722,47.37640762,8.55007553,470.09536743,5,1
1312467431.42322826,47.37640762,8.55007553,470.03756714,5,1
1312467431.47110844,47.37640762,8.55007553,469.97970581,5,1
1312467431.52409339,47.37640381,8.55007744,470.16238403,5,1
1312467431.57119703,47.37640381,8.55007744,470.10549927,5,1
1312467431.62412858,47.37640381,8.55007744,470.04858398,5,1
1312467431.67109919,47.37640381,8.55007744,469.99160767,5,1
1312467431.72421217,47.37640381,8.55007744,469.93460083,5,1
1312467431.77107525,47.37640381,8.55007935,470.12741089,5,1
1312467431.82320571,47.37640381,8.55007935,470.07138062,5,1
1312467431.87120605,47.37640381,8.55007935,470.01528931,5,1
1312467431.92311597,47.37640381,8.55007935,469.95919800,5,1
1312467431.97112632,47.37640381,8.55007935,469.90301514,5,1
1312467432.02020121,47.37640381,8.55008030,470.11694336,5,1
1312467432.07309365,47.37640381,8.55008030,470.06179810,5,1
1312467432.12326860,47.37640381,8.55008030,470.00665283,5,1
1312467432.17119050,47.37640381,8.55007935,469.95141602,5,1
1312467432.22372460,47.37640381,8.55007935,469.89614868,5,1
1312467432.27216887,47.37640381,8.55008125,470.11959839,5,1
1312467432.32016897,47.37640381,8.55008125,470.06539917,5,1
1312467432.37109685,47.37640381,8.55008125,470.01116943,5,1
1312467432.42010784,47.37640381,8.55008125,469.95687866,5,1
1312467432.47107005,47.37640381,8.55008125,469.90252686,5,1
1312467432.52309895,47.37640381,8.55008221,470.14547729,5,1
1312467432.57105827,47.37640381,8.55008221,470.09228516,5,1
1312467432.62013936,47.37640381,8.55008221,470.03906250,5,1
1312467432.67111254,47.37640381,8.55008221,469.98577881,5,1
1312467432.72308683,47.37640381,8.55008221,469.93243408,5,1
1312467432.77110076,47.37640381,8.55008411,470.19201660,5,1
1312467432.82415056,47.37640381,8.55008411,470.13986206,5,1
1312467432.87106299,47.37640381,8.55008411,470.08770752,5,1
1312467432.92310047,47.37640381,8.55008411,470.03546143,5,1
1312467432.97110105,47.37640381,8.55008411,469.98318481,5,1
1312467433.02307248,47.37639999,8.55008602,470.25390625,5,1
1312467433.07119417,47.37639999,8.55008602,470.20288086,5,1
1312467433.12309194,47.37639999,8.55008602,470.15179443,5,1
1312467433.17119122,47.37639999,8.55008602,470.10064697,5,1
1312467433.22419667,47.37639999,8.55008602,470.04946899,5,1
1312467433.27475834,47.37639999,8.55008793,470.33901978,5,1
1312467433.32307720,47.37639999,8.55008793,470.28915405,5,1
1312467433.37119055,47.37639999,8.55008793,470.23922729,5,1
1312467433.42306972,47.37639999,8.55008793,470.18927002,5,1
1312467433.47109294,47.37639999,8.55008793,470.13925171,5,1
1312467433.52309895,47.37639999,8.55008793,470.44305420,5,1
1312467433.57208538,47.37639999,8.55008793,470.39443970,5,1
1312467433.62417173,47.37639999,8.55008793,470.34576416,5,1
1312467433.67297578,47.37639999,8.55008793,470.29702759,5,1
1312467433.72414351,47.37639999,8.55008793,470.24826050,5,1
1312467433.77119112,47.37639999,8.55008984,470.56417847,5,1
1312467433.82308555,47.37639618,8.55008984,470.51684570,5,1
1312467433.87211275,47.37639618,8.55008984,470.46948242,5,1
1312467433.92411184,47.37639618,8.55008984,470.42208862,5,1
1312467433.97119284,47.37639618,8.55008984,470.37463379,5,1
1312467434.02409410,47.37639618,8.55009079,470.70086670,5,1
1312467434.07267857,47.37639618,8.55009079,470.65487671,5,1
1312467434.12311029,47.37639618,8.55009079,470.60885620,5,1
1312467434.17116499,47.37639618,8.55009079,470.56280518,5,1
1312467434.22423410,47.37639618,8.55009079,470.51669312,5,1
1312467434.27193260,47.37639618,8.55009270,470.84857178,5,1
1312467434.32311058,47.37639618,8.55009270,470.80392456,5,1
1312467434.37109947,47.37639618,8.55009270,470.75924683,5,1
1312467434.42310882,47.37639618,8.55009270,470.71453857,5,1
1312467434.47306156,47.37639618,8.55009270,470.66976929,5,1
1312467434.52313042,47.37639618,8.55009365,471.01119995,5,1
1312467434.57119131,47.37639618,8.55009365,470.96792603,5,1
1312467434.62324739,47.37639618,8.55009365,470.92459106,5,1
1312467434.66321135,47.37639618,8.55009365,470.88125610,5,1
1312467434.72023273,47.37639618,8.55009365,470.84655762,5,1
1312467434.77190995,47.37639618,8.55009460,471.19262695,5,1
1312467434.82323050,47.37639618,8.55009460,471.15078735,5,1
1312467434.87419200,47.37639618,8.55009460,471.10891724,5,1
1312467434.92340517,47.37639618,8.55009460,471.06698608,5,1
1312467434.97149539,47.37639618,8.55009460,471.02502441,5,1
1312467435.02321362,47.37639236,8.55009556,471.38751221,5,1
1312467435.07121325,47.37639236,8.55009556,471.34710693,5,1
1312467435.12415266,47.37639236,8.55009556,471.30667114,5,1
1312467435.17110705,47.37639236,8.55009556,471.26620483,5,1
1312467435.22108793,47.37639236,8.55009556,471.22567749,5,1
1312467435.27279902,47.37639236,8.55009651,471.59359741,5,1
1312467435.32011676,47.37639236,8.55009651,471.55468750,5,1
1312467435.37178516,47.37639236,8.55009651,471.51571655,5,1
1312467435.42306614,47.37639236,8.55009651,471.47671509,5,1
1312467435.47111464,47.37639236,8.55009651,471.43765259,5,1
1312467435.52414989,47.37639236,8.55009747,471.81497192,5,1
1312467435.57110643,47.37639236,8.55009747,471.77749634,5,1
1312467435.62309361,47.37639236,8.55009747,471.74002075,5,1
1312467435.67259955,47.37639236,8.55009747,471.70248413,5,1
1312467435.72407460,47.37639236,8.55009747,471.66488647,5,1
1312467435.77111316,47.37639236,8.55009842,472.04208374,5,1
1312467435.82307124,47.37639236,8.55009842,472.00610352,5,1
1312467435.87150931,47.37639236,8.55009842,471.97009277,5,1
1312467435.92323256,47.37639236,8.55009842,471.93402100,5,1
1312467435.97107649,47.37639236,8.55009842,471.89788818,5,1
1312467436.02308774,47.37639236,8.55009842,472.27871704,5,1
1312467436.07106185,47.37639236,8.55009842,472.24420166,5,1
1312467436.12339425,47.37639236,8.55009842,472.20965576,5,1
1312467436.17178583,47.37639236,8.55009842,472.17504883,5,1
1312467436.22083473,47.37639236,8.55009842,472.14041138,5,1
1312467436.27175236,47.37639236,8.55009937,472.52969360,5,1
1312467436.32348847,47.37639236,8.55009937,472.49670410,5,1
1312467436.37205529,47.37639236,8.55009937,472.46368408,5,1
1312467436.42409849,47.37639236,8.55009937,472.43060303,5,1
1312467436.47290397,47.37639236,8.55009937,472.39749146,5,1
1312467436.52325130,47.37639236,8.55009937,472.78793335,5,1
1312467436.57194734,47.37639236,8.55009937,472.75650024,5,1
1312467436.62422013,47.37639236,8.55009937,472.72500610,5,1
1312467436.67212772,47.37638855,8.55009937,472.69345093,5,1
1312467436.72415662,47.37638855,8.55009937,472.66186523,5,1
1312467436.77118111,47.37638855,8.55010033,473.04901123,5,1
1312467436.82415748,47.37638855,8.55010033,473.01901245,5,1
1312467436.87344933,47.37638855,8.55010033,472.98898315,5,1
1312467436.92307878,47.37638855,8.55010033,472.95892334,5,1
1312467436.97219872,47.37638855,8.55010033,472.92883301,5,1
1312467437.02309585,47.37638855,8.55010128,473.31103516,5,1
1312467437.07221198,47.37638855,8.55010128,473.28253174,5,1
1312467437.12414384,47.37638855,8.55010128,473.25396729,5,1
1312467437.17110705,47.37638855,8.55010128,473.22534180,5,1
1312467437.22419786,47.37638855,8.55010128,473.19668579,5,1
1312467437.27106738,47.37638855,8.55010223,473.57723999,5,1
1312467437.32308817,47.37638855,8.55010223,473.55014038,5,1
1312467437.37210798,47.37638855,8.55010223,473.52297974,5,1
1312467437.42317796,47.37638855,8.55010223,473.49581909,5,1
1312467437.47120118,47.37638855,8.55010223,473.46859741,5,1
1312467437.52308416,47.37638855,8.55010223,473.84899902,5,1
1312467437.57220244,47.37638855,8.55010223,473.82333374,5,1
1312467437.62308860,47.37638855,8.55010223,473.79760742,5,1
1312467437.67304897,47.37638855,8.55010223,473.77182007,5,1
1312467437.72026849,47.37638855,8.55010223,473.74597168,5,1
1312467437.77121472,47.37638855,8.55010319,474.13082886,5,1
1312467437.82307220,47.37638855,8.55010319,474.10662842,5,1
1312467437.87109447,47.37638855,8.55010319,474.08236694,5,1
1312467437.92309809,47.37638855,8.55010319,474.05807495,5,1
1312467437.97220659,47.37638855,8.55010319,474.03369141,5,1
1312467438.02029490,47.37638855,8.55010414,474.41735840,5,1
1312467438.07413697,47.37638855,8.55010414,474.39459229,5,1
1312467438.12308979,47.37638855,8.55010414,474.37179565,5,1
1312467438.17121053,47.37638855,8.55010414,474.34896851,5,1
1312467438.22010970,47.37638855,8.55010414,474.32604980,5,1
1312467438.27121210,47.37638855,8.55010509,474.70260620,5,1
1312467438.32313275,47.37638855,8.55010509,474.68124390,5,1
1312467438.37121344,47.37638855,8.55010509,474.65985107,5,1
1312467438.42318201,47.37638855,8.55010509,474.63845825,5,1
1312467438.47107530,47.37638855,8.55010509,474.61700439,5,1
1312467438.52012658,47.37638474,8.55010605,474.98828125,5,1
1312467438.57110763,47.37638474,8.55010605,474.96832275,5,1
1312467438.62420464,47.37638474,8.55010605,474.94830322,5,1
1312467438.67212629,47.37638474,8.55010605,474.92828369,5,1
1312467438.72499537,47.37638474,8.55010605,474.90820312,5,1
1312467438.77110481,47.37638474,8.55010700,475.27850342,5,1
1312467438.82411861,47.37638474,8.55010700,475.25991821,5,1
1312467438.87273407,47.37638474,8.55010700,475.24130249,5,1
1312467438.92330718,47.37638474,8.55010700,475.22259521,5,1
1312467438.97120214,47.37638474,8.55010700,475.20388794,5,1
1312467439.02325940,47.37638474,8.55010796,475.57226562,5,1
1312467439.07221508,47.37638474,8.55010796,475.55502319,5,1
1312467439.12334824,47.37638474,8.55010796,475.53771973,5,1
1312467439.17222691,47.37638474,8.55010796,475.52035522,5,1
1312467439.22421932,47.37638474,8.55010796,475.50296021,5,1
1312467439.27305937,47.37638474,8.55010891,475.86605835,5,1
1312467439.32354927,47.37638474,8.55010891,475.85012817,5,1
1312467439.37222481,47.37638474,8.55010891,475.83413696,5,1
1312467439.42412090,47.37638474,8.55010891,475.81811523,5,1
1312467439.47106290,47.37638474,8.55010891,475.80206299,5,1
1312467439.52338910,47.37638474,8.55010986,476.15988159,5,1
1312467439.57220602,47.37638474,8.55010986,476.14523315,5,1
1312467439.62410831,47.37638474,8.55010986,476.13055420,5,1
1312467439.67359686,47.37638474,8.55010986,476.11581421,5,1
1312467439.72307754,47.37638474,8.55010986,476.10104370,5,1
1312467439.77120924,47.37638474,8.55011082,476.44665527,5,1
1312467439.82345033,47.37638474,8.55011082,476.43322754,5,1
1312467439.87221479,47.37638474,8.55011082,476.41973877,5,1
1312467439.92421961,47.37638474,8.55011082,476.40621948,5,1
1312467439.97214890,47.37638474,8.55011082,476.39263916,5,1
1312467440.02317953,47.37638474,8.55011272,476.73303223,5,1
1312467440.07106876,47.37638474,8.55011272,476.72079468,5,1
1312467440.12333369,47.37638474,8.55011272,476.70849609,5,1
1312467440.17167091,47.37638474,8.55011272,476.69616699,5,1
1312467440.22314072,47.37638474,8.55011272,476.68377686,5,1
1312467440.27209973,47.37638474,8.55011272,477.02026367,5,1
1312467440.32307911,47.37638474,8.55011272,477.00918579,5,1
1312467440.37107897,47.37638474,8.55011272,476.99807739,5,1
1312467440.42336202,47.37638474,8.55011272,476.98690796,5,1
1312467440.47107720,47.37638474,8.55011272,476.97570801,5,1
1312467440.52427602,47.37638474,8.55011368,477.31698608,5,1
1312467440.57213926,47.37638474,8.55011368,477.30709839,5,1
1312467440.62308002,47.37638474,8.55011368,477.29721069,5,1
1312467440.67110419,47.37638474,8.55011368,477.28723145,5,1
1312467440.72323132,47.37638474,8.55011368,477.27725220,5,1
1312467440.77214670,47.37638474,8.55011463,477.60870361,5,1
1312467440.82313418,47.37638474,8.55011463,477.59994507,5,1
1312467440.87109709,47.37638474,8.55011463,477.59115601,5,1
1312467440.92319345,47.37638474,8.55011463,477.58233643,5,1
1312467440.97206926,47.37638474,8.55011463,477.57345581,5,1
1312467441.02420378,47.37638474,8.55011559,477.90536499,5,1
1312467441.07113433,47.37638474,8.55011559,477.89773560,5,1
1312467441.12022400,47.37638474,8.55011559,477.89010620,5,1
1312467441.17108774,47.37638474,8.55011559,477.88241577,5,1
1312467441.22425437,47.37638474,8.55011559,477.87466431,5,1
1312467441.27283168,47.37638474,8.55011654,478.20166016,5,1
1312467441.32313681,47.37638474,8.55011654,478.19512939,5,1
1312467441.37220335,47.37638474,8.55011654,478.18853760,5,1
1312467441.42306185,47.37638474,8.55011654,478.18191528,5,1
1312467441.47111154,47.37638474,8.55011654,478.17526245,5,1
1312467441.52313590,47.37638474,8.55011654,478.50497437,5,1
1312467441.57108974,47.37638092,8.55011654,478.49954224,5,1
1312467441.62313771,47.37638092,8.55011654,478.49404907,5,1
1312467441.67309022,47.37638092,8.55011654,478.48852539,5,1
1312467441.72407317,47.37638092,8.55011654,478.48294067,5,1
1312467441.77111721,47.37638092,8.55011749,478.81201172,5,1
1312467441.82342339,47.37638092,8.55011749,478.80767822,5,1
1312467441.87220645,47.37638092,8.55011749,478.80331421,5,1
1312467441.92354035,47.37638092,8.55011749,478.79891968,5,1
1312467441.97222614,47.37638092,8.55011749,478.79446411,5,1
1312467442.02311373,47.37638092,8.55011845,479.11853027,5,1
1312467442.07311082,47.37638092,8.55011845,479.11532593,5,1
1312467442.12333369,47.37638092,8.55011845,479.11209106,5,1
1312467442.17107058,47.37638092,8.55011845,479.10879517,5,1
1312467442.22439861,47.37638092,8.55011845,479.10546875,5,1
1312467442.27107453,47.37638092,8.55011940,479.42169189,5,1
1312467442.32346296,47.37638092,8.55011940,479.41952515,5,1
1312467442.37221074,47.37638092,8.55011940,479.41732788,5,1
1312467442.42319393,47.37638092,8.55011940,479.41506958,5,1
1312467442.47106099,47.37637711,8.55011940,479.41278076,5,1
1312467442.52309513,47.37638092,8.55011940,479.72808838,5,1
1312467442.57119203,47.37637711,8.55011940,479.72702026,5,1
1312467442.62418604,47.37637711,8.55011940,479.72589111,5,1
1312467442.67118049,47.37637711,8.55011940,479.72473145,5,1
1312467442.72429824,47.37637711,8.55011940,479.72354126,5,1
1312467442.77118087,47.37637711,8.55012035,480.03475952,5,1
1312467442.82425141,47.37637711,8.55012035,480.03472900,5,1
1312467442.87161851,47.37637711,8.55012035,480.03463745,5,1
1312467442.92315125,47.37637711,8.55012035,480.03448486,5,1
1312467442.97119498,47.37637711,8.55012035,480.03430176,5,1
1312467443.02418280,47.37637711,8.55012131,480.34567261,5,1
1312467443.07219911,47.37637711,8.55012131,480.34671021,5,1
1312467443.12324238,47.37637711,8.55012131,480.34765625,5,1
1312467443.17153144,47.37637711,8.55012131,480.34860229,5,1
1312467443.22469640,47.37637711,8.55012131,480.34945679,5,1
1312467443.27109742,47.37637711,8.55012226,480.65039062,5,1
1312467443.32316899,47.37637711,8.55012226,480.65234375,5,1
1312467443.37237382,47.37637711,8.55012226,480.65429688,5,1
1312467443.42324162,47.37637329,8.55012226,480.65618896,5,1
1312467443.47119594,47.37637329,8.55012226,480.65802002,5,1
1312467443.52386713,47.37637711,8.55012321,480.96218872,5,1
1312467443.57220721,47.37637711,8.55012321,480.96514893,5,1
1312467443.62323141,47.37637329,8.55012321,480.96807861,5,1
1312467443.67287087,47.37637329,8.55012321,480.97097778,5,1
1312467443.72415900,47.37637329,8.55012321,480.97381592,5,1
1312467443.77223873,47.37637329,8.55012417,481.28161621,5,1
1312467443.82413888,47.37637329,8.55012417,481.28561401,5,1
1312467443.87120748,47.37637329,8.55012417,481.28961182,5,1
1312467443.92420340,47.37637329,8.55012417,481.29357910,5,1
1312467443.97109532,47.37637329,8.55012417,481.29751587,5,1
1312467444.02015424,47.37637329,8.55012417,481.59948730,5,1
1312467444.07304454,47.37637329,8.55012417,481.60449219,5,1
1312467444.12322259,47.37637329,8.55012417,481.60949707,5,1
1312467444.17213368,47.37637329,8.55012417,481.61444092,5,1
1312467444.22312737,47.37637329,8.55012417,481.61935425,5,1
1312467444.27122045,47.37637329,8.55012512,481.91433716,5,1
1312467444.32323980,47.37637329,8.55012512,481.92031860,5,1
1312467444.37214589,47.37637329,8.55012512,481.92630005,5,1
1312467444.42338109,47.37637329,8.55012512,481.93222046,5,1
1312467444.47287130,47.37637329,8.55012512,481.93807983,5,1
1312467444.52007437,47.37637329,8.55012703,482.23733521,5,1
1312467444.57206225,47.37637329,8.55012703,482.24432373,5,1
1312467444.62307668,47.37637329,8.55012703,482.25125122,5,1
1312467444.67109585,47.37637329,8.55012703,482.25814819,5,1
1312467444.72308397,47.37636948,8.55012703,482.26501465,5,1
1312467444.77160120,47.37637329,8.55012798,482.56762695,5,1
1312467444.82307029,47.37637329,8.55012798,482.57559204,5,1
1312467444.87157011,47.37636948,8.55012798,482.58355713,5,1
1312467444.92010021,47.37636948,8.55012798,482.59146118,5,1
1312467444.97112489,47.37636948,8.55012798,482.59933472,5,1
1312467445.02308917,47.37636948,8.55012798,482.88900757,5,1
1312467445.07209778,47.37636948,8.55012798,482.89791870,5,1
1312467445.12420797,47.37636948,8.55012798,482.90676880,5,1
1312467445.17107940,47.37636948,8.55012798,482.91558838,5,1
1312467445.22510791,47.37636948,8.55012798,482.92437744,5,1
1312467445.27107263,47.37636948,8.55012894,483.22216797,5,1
1312467445.32309651,47.37636948,8.55012894,483.23202515,5,1
1312467445.37210226,47.37636948,8.55012894,483.24185181,5,1
1312467445.42376161,47.37636948,8.55012894,483.25161743,5,1
1312467445.47209978,47.37636948,8.55012798,483.26135254,5,1
1312467445.52411890,47.37636948,8.55012894,483.55212402,5,1
1312467445.57221866,47.37636948,8.55012894,483.56286621,5,1
1312467445.62411070,47.37636948,8.55012894,483.57357788,5,1
1312467445.67332602,47.37636948,8.55012894,483.58422852,5,1
1312467445.72307301,47.37636948,8.55012894,483.59484863,5,1
1312467445.77130294,47.37636948,8.55012894,483.87298584,5,1
1312467445.82317305,47.37636948,8.55012894,483.88461304,5,1
1312467445.87222242,47.37636948,8.55012894,483.89617920,5,1
1312467445.92420244,47.37636948,8.55012894,483.90771484,5,1
1312467445.97221994,47.37636948,8.55012894,483.91918945,5,1
1312467446.02347374,47.37636948,8.55012989,484.19012451,5,1
1312467446.07106352,47.37636948,8.55012989,484.20254517,5,1
1312467446.12310553,47.37636948,8.55012989,484.21496582,5,1
1312467446.17111087,47.37636566,8.55012989,484.22735596,5,1
1312467446.22424054,47.37636566,8.55012989,484.23968506,5,1
1312467446.27106881,47.37636948,8.55012989,484.49420166,5,1
1312467446.32332325,47.37636948,8.55012989,484.50738525,5,1
1312467446.37130570,47.37636948,8.55012989,484.52050781,5,1
1312467446.42311335,47.37636948,8.55012989,484.53363037,5,1
1312467446.47475290,47.37636566,8.55012989,484.54666138,5,1
1312467446.52426147,47.37636948,8.55012989,484.79666138,5,1
1312467446.57119012,47.37636948,8.55012989,484.81057739,5,1
1312467446.62423873,47.37636948,8.55012989,484.82443237,5,1
1312467446.67119098,47.37636948,8.55012989,484.83825684,5,1
1312467446.72309375,47.37636948,8.55012989,484.85202026,5,1
1312467446.77110767,47.37636948,8.55012989,485.09024048,5,1
1312467446.82316923,47.37636948,8.55012989,485.10482788,5,1
1312467446.87329888,47.37636948,8.55012989,485.11938477,5,1
1312467446.92424536,47.37636948,8.55012989,485.13391113,5,1
1312467446.97227073,47.37636948,8.55012989,485.14837646,5,1
1312467447.02319407,47.37636948,8.55012989,485.37423706,5,1
1312467447.07221031,47.37636948,8.55012989,485.38943481,5,1
1312467447.12018442,47.37636948,8.55012989,485.40460205,5,1
1312467447.17107749,47.37636948,8.55012989,485.41970825,5,1
1312467447.22308183,47.37636948,8.55012989,485.43475342,5,1
1312467447.27106500,47.37636948,8.55012989,485.64971924,5,1
1312467447.32318568,47.37636948,8.55012989,485.66546631,5,1
1312467447.37216735,47.37636948,8.55012989,485.68118286,5,1
1312467447.42339778,47.37636948,8.55012989,485.69683838,5,1
1312467447.47107673,47.37636948,8.55012989,485.71246338,5,1
1312467447.52354360,47.37636948,8.55013084,485.91510010,5,1
1312467447.57215309,47.37636948,8.55013084,485.93133545,5,1
1312467447.62348771,47.37636948,8.55013084,485.94754028,5,1
1312467447.67280364,47.37636948,8.55013084,485.96371460,5,1
1312467447.72333932,47.37636948,8.55013084,485.97982788,5,1
1312467447.77111220,47.37636948,8.55013084,486.17846680,5,1
1312467447.82021832,47.37636948,8.55013084,486.19519043,5,1
1312467447.87221289,47.37636948,8.55013084,486.21188354,5,1
1312467447.92353773,47.37636948,8.55013084,486.22854614,5,1
1312467447.97222066,47.37636948,8.55013084,486.24514771,5,1
1312467448.02419543,47.37636948,8.55013180,486.44595337,5,1
1312467448.07387662,47.37636948,8.55013180,486.46322632,5,1
1312467448.12308693,47.37636948,8.55013084,486.48046875,5,1
1312467448.17108822,47.37636948,8.55013084,486.49765015,5,1
1312467448.21108747,47.37636948,8.55013084,486.51480103,5,1
